TimeEST,TemperatureF,Dew PointF,Humidity,Sea Level PressureIn,VisibilityMPH,Wind Direction,Wind SpeedMPH,Gust SpeedMPH,PrecipitationIn,Events,Conditions,WindDirDegrees,DateUTC
12:15 AM,23.0,14.0,68,30.14,10.0,NW,8.1,-,N/A,,Overcast,320,2013-01-21 05:15:00
12:35 AM,23.0,14.0,68,30.13,10.0,NW,8.1,-,N/A,,Overcast,310,2013-01-21 05:35:00
12:55 AM,23.0,14.0,68,30.13,10.0,NW,10.4,-,N/A,,Overcast,310,2013-01-21 05:55:00
1:15 AM,23.0,14.0,68,30.12,10.0,WNW,8.1,-,N/A,,Overcast,290,2013-01-21 06:15:00
1:35 AM,23.0,14.0,68,30.11,10.0,WNW,6.9,-,N/A,,Overcast,300,2013-01-21 06:35:00
1:55 AM,21.2,14.0,74,30.11,10.0,WNW,8.1,-,N/A,,Overcast,290,2013-01-21 06:55:00
2:15 AM,21.2,14.0,74,30.11,10.0,WNW,5.8,-,N/A,,Overcast,290,2013-01-21 07:15:00
2:35 AM,21.2,12.2,68,30.11,10.0,WNW,10.4,-,N/A,,Overcast,290,2013-01-21 07:35:00
2:55 AM,21.2,12.2,68,30.11,10.0,WNW,9.2,-,N/A,,Overcast,300,2013-01-21 07:55:00
3:15 AM,21.2,12.2,68,30.10,10.0,WNW,9.2,-,N/A,,Overcast,290,2013-01-21 08:15:00
3:35 AM,21.2,10.4,63,30.09,10.0,WNW,9.2,-,N/A,,Overcast,290,2013-01-21 08:35:00
3:55 AM,21.2,12.2,68,30.09,10.0,WNW,8.1,-,N/A,,Overcast,290,2013-01-21 08:55:00
4:15 AM,21.2,12.2,68,30.09,10.0,West,8.1,-,N/A,,Overcast,280,2013-01-21 09:15:00
4:35 AM,21.2,12.2,68,30.08,10.0,West,10.4,-,N/A,,Overcast,270,2013-01-21 09:35:00
4:55 AM,21.2,12.2,68,30.08,10.0,West,12.7,-,N/A,,Overcast,270,2013-01-21 09:55:00
5:15 AM,21.2,14.0,74,30.07,10.0,West,15.0,18.4,N/A,Snow,Light Snow,270,2013-01-21 10:15:00
5:35 AM,21.2,12.2,68,30.07,10.0,West,12.7,-,N/A,,Overcast,280,2013-01-21 10:35:00
5:55 AM,19.4,12.2,74,30.07,10.0,West,10.4,-,N/A,,Overcast,280,2013-01-21 10:55:00
6:15 AM,19.4,14.0,80,30.06,10.0,West,10.4,-,N/A,,Overcast,270,2013-01-21 11:15:00
6:35 AM,19.4,14.0,80,30.07,10.0,West,11.5,-,N/A,Snow,Light Snow,280,2013-01-21 11:35:00
6:55 AM,19.4,14.0,80,30.06,5.0,WNW,10.4,-,N/A,Snow,Light Snow,290,2013-01-21 11:55:00
7:15 AM,19.4,14.0,80,30.07,10.0,WNW,9.2,-,N/A,Snow,Light Snow,290,2013-01-21 12:15:00
7:35 AM,19.4,14.0,80,30.07,10.0,WNW,12.7,-,N/A,Snow,Light Snow,290,2013-01-21 12:35:00
7:55 AM,19.4,14.0,80,30.06,7.0,West,10.4,18.4,N/A,Snow,Light Snow,280,2013-01-21 12:55:00
8:15 AM,19.4,14.0,80,30.07,10.0,WNW,10.4,-,N/A,Snow,Light Snow,290,2013-01-21 13:15:00
8:35 AM,19.4,12.2,74,30.07,10.0,West,13.8,18.4,N/A,Snow,Light Snow,280,2013-01-21 13:35:00
8:55 AM,17.6,12.2,79,30.06,7.0,WNW,15.0,-,N/A,Snow,Light Snow,290,2013-01-21 13:55:00
9:15 AM,19.4,12.2,74,30.06,7.0,West,13.8,18.4,N/A,Snow,Light Snow,280,2013-01-21 14:15:00
9:35 AM,17.6,14.0,86,30.06,2.0,WNW,15.0,-,N/A,Snow,Light Snow,290,2013-01-21 14:35:00
9:55 AM,17.6,14.0,86,30.07,2.5,WNW,13.8,20.7,N/A,Snow,Light Snow,290,2013-01-21 14:55:00
10:15 AM,19.4,12.2,74,30.07,7.0,West,17.3,25.3,N/A,,Overcast,280,2013-01-21 15:15:00
10:35 AM,17.6,12.2,79,30.07,2.5,WNW,13.8,23.0,N/A,Snow,Light Snow,290,2013-01-21 15:35:00
10:55 AM,17.6,10.4,73,30.08,7.0,WNW,18.4,29.9,N/A,,Overcast,290,2013-01-21 15:55:00
11:15 AM,19.4,8.6,63,30.07,10.0,West,19.6,28.8,N/A,,Mostly Cloudy,280,2013-01-21 16:15:00
11:35 AM,19.4,5.0,54,30.07,10.0,West,20.7,28.8,N/A,,Scattered Clouds,280,2013-01-21 16:35:00
11:55 AM,19.4,8.6,63,30.07,10.0,WNW,21.9,35.7,N/A,,Mostly Cloudy,300,2013-01-21 16:55:00
12:15 PM,19.4,6.8,58,30.07,10.0,West,24.2,33.4,N/A,,Overcast,280,2013-01-21 17:15:00
12:35 PM,19.4,5.0,54,30.06,10.0,WNW,21.9,34.5,N/A,,Mostly Cloudy,290,2013-01-21 17:35:00
12:55 PM,17.6,5.0,58,30.07,10.0,WNW,21.9,29.9,N/A,,Overcast,290,2013-01-21 17:55:00
1:15 PM,17.6,3.2,53,30.06,10.0,WNW,23.0,32.2,N/A,,Mostly Cloudy,290,2013-01-21 18:15:00
1:35 PM,17.6,3.2,53,30.05,10.0,West,24.2,32.2,N/A,,Mostly Cloudy,280,2013-01-21 18:35:00
1:55 PM,17.6,3.2,53,30.05,10.0,West,19.6,29.9,N/A,,Overcast,280,2013-01-21 18:55:00
2:15 PM,17.6,3.2,53,30.05,10.0,WNW,17.3,25.3,N/A,,Overcast,290,2013-01-21 19:15:00
2:35 PM,17.6,8.6,68,30.06,4.0,West,19.6,25.3,N/A,Snow,Light Snow,280,2013-01-21 19:35:00
2:55 PM,17.6,8.6,68,30.06,7.0,West,20.7,32.2,N/A,,Overcast,280,2013-01-21 19:55:00
3:15 PM,17.6,6.8,63,30.07,10.0,West,23.0,28.8,N/A,,Overcast,280,2013-01-21 20:15:00
3:35 PM,17.6,5.0,58,30.08,10.0,West,19.6,26.5,N/A,,Overcast,280,2013-01-21 20:35:00
3:55 PM,14.0,8.6,79,30.10,5.0,WNW,20.7,35.7,N/A,,Haze,290,2013-01-21 20:55:00
4:15 PM,14.0,5.0,67,30.10,10.0,West,18.4,32.2,N/A,,Mostly Cloudy,280,2013-01-21 21:15:00
4:35 PM,14.0,5.0,67,30.10,5.0,West,19.6,31.1,N/A,Snow,Light Snow,280,2013-01-21 21:35:00
4:55 PM,14.0,6.8,73,30.11,4.0,WNW,20.7,25.3,N/A,Snow,Light Snow,290,2013-01-21 21:55:00
5:15 PM,12.2,5.0,73,30.11,10.0,WNW,15.0,31.1,N/A,,Mostly Cloudy,290,2013-01-21 22:15:00
5:35 PM,12.2,3.2,67,30.11,10.0,WNW,12.7,20.7,N/A,,Mostly Cloudy,290,2013-01-21 22:35:00
5:55 PM,12.2,1.4,62,30.12,10.0,West,20.7,28.8,N/A,,Mostly Cloudy,280,2013-01-21 22:55:00
6:15 PM,12.2,-0.4,57,30.13,10.0,WNW,16.1,28.8,N/A,,Clear,290,2013-01-21 23:15:00
6:35 PM,10.4,1.4,67,30.13,10.0,West,18.4,25.3,N/A,,Clear,280,2013-01-21 23:35:00
6:55 PM,12.2,1.4,62,30.14,10.0,West,20.7,26.5,N/A,,Scattered Clouds,270,2013-01-21 23:55:00
7:15 PM,10.4,-0.4,62,30.14,10.0,West,19.6,25.3,N/A,,Scattered Clouds,280,2013-01-22 00:15:00
7:55 PM,10.4,-0.4,62,30.14,10.0,WNW,17.3,23.0,N/A,,Clear,290,2013-01-22 00:55:00
8:15 PM,10.4,-2.2,57,30.14,10.0,WNW,18.4,24.2,N/A,,Clear,300,2013-01-22 01:15:00
8:35 PM,10.4,-0.4,62,30.15,10.0,WNW,19.6,25.3,N/A,,Clear,290,2013-01-22 01:35:00
8:55 PM,10.4,-2.2,57,30.16,10.0,West,15.0,23.0,N/A,,Clear,280,2013-01-22 01:55:00
9:35 PM,10.4,-2.2,57,30.17,10.0,WNW,16.1,-,N/A,,Clear,290,2013-01-22 02:35:00
9:55 PM,8.6,-2.2,62,30.17,10.0,WNW,12.7,16.1,N/A,,Clear,290,2013-01-22 02:55:00
10:15 PM,8.6,-2.2,62,30.18,10.0,West,13.8,-,N/A,,Clear,280,2013-01-22 03:15:00
10:35 PM,8.6,-4.0,57,30.18,10.0,West,15.0,20.7,N/A,,Clear,280,2013-01-22 03:35:00
10:55 PM,8.6,-2.2,62,30.18,10.0,West,13.8,21.9,N/A,,Clear,280,2013-01-22 03:55:00
11:15 PM,8.6,-2.2,62,30.18,10.0,WNW,13.8,20.7,N/A,,Clear,290,2013-01-22 04:15:00
11:35 PM,8.6,-4.0,57,30.18,10.0,WNW,17.3,24.2,N/A,,Clear,290,2013-01-22 04:35:00
11:55 PM,8.6,-4.0,57,30.19,10.0,WNW,20.7,26.5,N/A,,Scattered Clouds,290,2013-01-22 04:55:00